Skip Page Navigation
NASA JPL Caltech
NASA Logo - Jet Propulsion Laboratory + View the NASA Portal
+ Center for Near-Earth Object Studies
JPL Home Earth Solar System Stars & Galaxies Technology
JPL Solar System Dynamics
BODIES ORBITS EPHEMERIDES TOOLS PHYSICAL DATA DISCOVERY FAQ SITE MAP
JPL Small-Body Database Browser
Search: [ help ]  
102736 (1999 VE105)
Classification: Main-belt Asteroid          SPK-ID: 2102736
Ephemeris | Orbit Diagram | Orbital Elements | Mission Design | Physical Parameters | Discovery Circumstances ]

[ show orbit diagram ]
Orbital Elements at Epoch 2459000.5 (2020-May-31.0) TDB
Reference: JPL 22 (heliocentric ecliptic J2000)
 Element Value Uncertainty (1-sigma)   Units 
e .1072673898032498 4.7483e-08  
a 2.774010897730121 2.1123e-08 au
q 2.476449989444842 1.3352e-07 au
i 5.390851638342125 4.6278e-06 deg
node 55.19847549087059 5.616e-05 deg
peri 304.1293991546586 6.0432e-05 deg
M 205.1363814705207 2.5473e-05 deg
tp 2459726.451443494113
(2022-May-26.95144349)
0.00012398 TDB
period 1687.565627998887
4.62
1.9276e-05
5.277e-08
d
yr
n .2133250369805692 2.4366e-09 deg/d
Q 3.071571806015401 2.3389e-08 au
  Orbit Determination Parameters
   # obs. used (total)      510  
   data-arc span      7503 days (20.54 yr)  
   first obs. used      1999-11-09  
   last obs. used      2020-05-25  
   planetary ephem.      DE431  
   SB-pert. ephem.      SB431-N16  
   condition code      0  
   norm. resid. RMS      .60236  
   source      ORB  
   producer      Otto Matic  
   solution date      2020-Nov-12 19:52:57  

Additional Information
 Earth MOID = 1.47829 au 
 Jupiter MOID = 2.38199 au 
 T_jup = 3.321 
[ show covariance matrix ]

Ephemeris | Orbit Diagram | Orbital Elements | Mission Design | Physical Parameters | Discovery Circumstances ]

Physical Parameter Table
Parameter Symbol Value Units Sigma Reference Notes
absolute magnitude H 15.63   n/a E2021B55  
diameter diameter 4.833 km 0.280 urn:nasa:pds:neowise_diameters_albedos::2.0[mainbelt] (http://adsabs.harvard.edu/abs/2011ApJ...741...68M)  
geometric albedo albedo 0.057   0.011 urn:nasa:pds:neowise_diameters_albedos::2.0[mainbelt] (http://adsabs.harvard.edu/abs/2011ApJ...741...68M)  

102736 (1999 VE105)          Discovered 1999-Nov-09 by LINEAR at Socorro
Reference: 20051019/Numbers.arcLast Updated: 2005-10-26

Alternate Designations
 1999 VE105 = 2002 JG96 
Ephemeris | Orbit Diagram | Orbital Elements | Mission Design | Physical Parameters | Discovery Circumstances ]
ABOUT SSD CREDITS/AWARDS PRIVACY/COPYRIGHT GLOSSARY LINKS
FirstGov 2021-Feb-28 20:14 UT
(server date/time)  
NASA Home Page
Site Manager:   Ryan S. Park
Webmaster  Alan B. Chamberlin